Lexington Weather

Lexington, Massachusetts, USA

48°F
12/8/2022 3:14pm 
  • Lexington Conditions: Clear
  • Temperature: 47.8°F / 8.8°CColder 1.7°F than last hour.
  • Dew Point: 35.1°FDecreased 0.1°Fsince last hour.
  • Relative Humidity: 61%Increased 3.0% since last hour.
  • Wind: Wind from NNE NNE Calm, 10-min avg: 1 mph, gust: 6 mph
  • Barometer: 30.08 inRising 0.02  inHg/hr Rising Slowly
  • Visibility: 10 miles
  • Rain Today: 0.00 in
  •   

Warning: Undefined variable $rc in /homepages/6/d276339138/htdocs/weather/20190804/ssi/nwsProduct.php on line 323

Warning: Undefined variable $rc in /homepages/6/d276339138/htdocs/weather/20190804/ssi/nwsProduct.php on line 325

Warning: Undefined variable $rc in /homepages/6/d276339138/htdocs/weather/20190804/ssi/nwsProduct.php on line 323

Warning: Undefined variable $rc in /homepages/6/d276339138/htdocs/weather/20190804/ssi/nwsProduct.php on line 325

Warning: Undefined variable $rc in /homepages/6/d276339138/htdocs/weather/20190804/ssi/nwsProduct.php on line 323

Warning: Undefined variable $rc in /homepages/6/d276339138/htdocs/weather/20190804/ssi/nwsProduct.php on line 325

Warning: Undefined variable $rc in /homepages/6/d276339138/htdocs/weather/20190804/ssi/nwsProduct.php on line 323

Warning: Undefined variable $rc in /homepages/6/d276339138/htdocs/weather/20190804/ssi/nwsProduct.php on line 325

Warning: Undefined variable $rc in /homepages/6/d276339138/htdocs/weather/20190804/ssi/nwsProduct.php on line 323

Warning: Undefined variable $rc in /homepages/6/d276339138/htdocs/weather/20190804/ssi/nwsProduct.php on line 325

Warning: Undefined variable $rc in /homepages/6/d276339138/htdocs/weather/20190804/ssi/nwsProduct.php on line 323

Warning: Undefined variable $rc in /homepages/6/d276339138/htdocs/weather/20190804/ssi/nwsProduct.php on line 325

Warning: Undefined variable $rc in /homepages/6/d276339138/htdocs/weather/20190804/ssi/nwsProduct.php on line 323

Warning: Undefined variable $rc in /homepages/6/d276339138/htdocs/weather/20190804/ssi/nwsProduct.php on line 325

Regional Weather Roundup
for Boston, MA

        
000
ASUS41 KBOX 021310
RWRBOX

REGIONAL WEATHER ROUNDUP
NATIONAL WEATHER SERVICE BOSTON/NORTON MA
800 AM EST FRI DEC 02 2022

NOTE:  "FAIR" INDICATES FEW OR NO CLOUDS BELOW 12,000 FEET WITH NO 
SIGNIFICANT WEATHER AND/OR OBSTRUCTIONS TO VISIBILITY.

MAZALL-021400-
EASTERN MASSACHUSETTS
  
CITY           SKY/WX    TMP DP  RH WIND       PRES   REMARKS
BOSTON         PTCLDY    36  24  62 W7        30.52R WCI  30          
BEVERLY        CLEAR     31  23  72 W3        30.51R                  
LAWRENCE       CLEAR     30  23  75 CALM      30.53R                  
BEDFORD        CLEAR     28  22  78 W5        30.50R WCI  23          
NORWOOD        CLEAR     30  25  81 CALM      30.52R                  
MARSHFIELD       N/A     30  25  80 CALM      30.52R                  
PLYMOUTH       CLEAR     30  24  78 SW3       30.51R                  
TAUNTON          N/A    N/A N/A N/A MISG      30.52R                  
NEW BEDFORD    CLEAR     29  27  92 CALM      30.52R                  
$$

MAZALL-021400-
CAPE COD AND THE ISLANDS
  
CITY           SKY/WX    TMP DP  RH WIND       PRES   REMARKS
FALMOUTH       CLEAR     28  23  80 NW6       30.52R WCI  22          
HYANNIS        CLEAR     31  26  82 CALM      30.51R                  
CHATHAM        SUNNY     35  27  72 CALM      30.52R                  
PROVINCETOWN   CLEAR     39  28  64 NW9       30.52R                  
NANTUCKET      SUNNY     41  29  62 NW5       30.52R                  
MARTHAS VNYRD  CLEAR     31  27  85 CALM      30.53R                  
$$
 
MAZALL-021400-
CENTRAL AND WESTERN MASSACHUSETTS
  
CITY           SKY/WX    TMP DP  RH WIND       PRES   REMARKS
WORCESTER      CLEAR     30  22  72 W8        30.47R WCI  22          
FITCHBURG      CLEAR     26  20  77 CALM      30.52R                  
ORANGE         CLEAR     23  21  92 CALM      30.51R                  
SPRINGFIELD    PTCLDY    28  22  80 CALM      30.50R                  
WESTFIELD      CLEAR     25  22  88 CALM      30.52R                  
NORTH ADAMS    MOCLDY    27  23  85 CALM      30.50R                  
PITTSFIELD     CLEAR     28  22  78 W3        30.46R                  
$$
 
RIZALL-021400-
RHODE ISLAND
  
CITY           SKY/WX    TMP DP  RH WIND       PRES   REMARKS
PROVIDENCE     PTCLDY    32  22  66 W7        30.53R WCI  26          
NEWPORT        CLEAR     34  26  72 NW3       30.52R                  
BLOCK ISLAND   CLEAR     36  26  67 VRB3      30.55R                  
SMITHFIELD     CLEAR     27  24  89 W6        30.51R WCI  20          
WESTERLY       CLEAR     29  25  85 CALM      30.54R                  
$$
 
CTZALL-021400-
CONNECTICUT
  
CITY           SKY/WX    TMP DP  RH WIND       PRES   REMARKS
BRADLEY INTL   PTCLDY    30  21  69 CALM      30.52R                  
HARTFORD       CLEAR     28  24  85 CALM      30.54R                  
BRIDGEPORT     CLEAR     34  24  67 CALM      30.55S                  
DANBURY        CLEAR     25  21  85 CALM      30.53S                  
GROTON         CLEAR     32  25  75 CALM      30.54S                  
NEW HAVEN      CLEAR     32  25  75 CALM      30.55R                  
CHESTER        FAIR      32  21  64 CALM      30.52S                  
MERIDEN        CLEAR     26  22  84 CALM      30.54R                  
WILLIMANTIC    CLEAR     24  22  91 CALM      30.54R                  
OXFORD         CLEAR     22  20  92 CALM      30.51R                  
$$

MEZ002-015-021-024-NHZ003-005-008-011-012-014-VTZ005-008-021400-
NORTHERN NEW ENGLAND
  
CITY           SKY/WX    TMP DP  RH WIND       PRES   REMARKS
PORTLAND ME    MOCLDY    28  22  78 CALM      30.49R                  
BANGOR ME      PTCLDY    27  16  63 CALM      30.46R                  
CONCORD NH     CLEAR     26  23  88 MISG      30.50R                  
MANCHESTER NH  PTCLDY    29  23  78 NW3       30.49R                  
NASHUA NH      CLEAR     27  27 100 CALM      30.52R                  
PORTSMOUTH NH  PTCLDY    32  22  68 W9        30.50R WCI  24          
JAFFREY NH     CLEAR     25  21  85 S3        30.47R                  
KEENE NH       CLEAR     21  20  96 CALM        N/A                   
BURLINGTON VT  MOCLDY    30  23  75 CALM      30.45R                  
MT. WASHINGTON MOCLDY    10   0  61 NW40        N/A  WCI -14          
$$

NYZ052-076-021400-
EASTERN NEW YORK
  
CITY           SKY/WX    TMP DP  RH WIND       PRES   REMARKS
ALBANY         MOCLDY    32  23  69 SE3       30.52R                  
NEW YORK CITY  PTCLDY    35  21  56 CALM      30.55R                  
$$
 
ANZALL-021400-
MARINE OBSERVATIONS
  
STATION/POSITION TIME  TEMP    WIND        PRES    VSBY  WAVE
                       AIR SEA DIR/SP/G                  HT/PER
                 (UTC) (F)     (DEG/KT/KT) (MB)    (MI)  (FT/S)
BOSTON BUOY      1250      51  290/ 10/ 14 1033.7R
BUZZARDS BAY     1200   38     320/ 10/ 11 1033.7R
NANTUCKET SOUND  1250   40 48  310/ 12/ 14 1033.4R         1/ 3
MASS BAY-STELLWA 1104   38 50  280/ 14/ 17 1031.1R  1 7/8  2/ 4
ISLE OF SHOALS   1200   36     280/ 13/ 15 1031.7R
S OF BLOCK IS    1256      55                N/A           3/ 5
$$

......................KEY.........................
  SKY/WX - SKY CONDITION/PRESENT WEATHER
  TMP    - TEMPERATURE IN FAHRENHEIT
  DWPT   - DEWPOINT IN FAHRENHEIT
  RH     - RELATIVE HUMIDITY IN PERCENT
  WIND   - DIRECTION AND SPEED IN MPH
  PRES   - MEAN SEA LEVEL PRESSURE IN INCHES OF HG
  WCI    - WIND CHILL INDEX
  VSB    - VISIBILITY IN MILES
  HX     - HEAT INDEX
  TC     - TEMPERATURE IN CELSIUS
  VRB    - VARIABLE WIND DIRECTION
  N/A    - NOT AVAILABLE
  
      

Other recent Regional Weather Roundups

Thu Dec 8, 2:10pm

Thu Dec 8, 1:10pm

Thu Dec 8, 12:10pm

Thu Dec 8, 11:10am

Thu Dec 8, 10:10am

Thu Dec 8, 9:10am

Thu Dec 8, 8:10am

Thu Dec 8, 7:10am

Thu Dec 8, 6:10am

Thu Dec 8, 5:10am

Thu Dec 8, 4:10am

Thu Dec 8, 3:10am

Thu Dec 8, 2:10am

Thu Dec 8, 1:10am

Thu Dec 8, 12:10am

Wed Dec 7, 11:10pm

Wed Dec 7, 10:10pm

Wed Dec 7, 9:10pm

Wed Dec 7, 8:10pm

Wed Dec 7, 7:10pm

Wed Dec 7, 6:10pm

Wed Dec 7, 5:10pm

Wed Dec 7, 4:10pm

Wed Dec 7, 3:10pm

Wed Dec 7, 2:10pm

Wed Dec 7, 1:10pm

Wed Dec 7, 12:10pm

Wed Dec 7, 11:10am

Wed Dec 7, 10:10am

Wed Dec 7, 9:10am

Wed Dec 7, 8:10am

Wed Dec 7, 7:10am

Wed Dec 7, 6:10am

Wed Dec 7, 5:10am

Wed Dec 7, 4:10am

Wed Dec 7, 3:10am

Wed Dec 7, 2:10am

Wed Dec 7, 1:10am

Wed Dec 7, 12:10am

Tue Dec 6, 11:10pm

Tue Dec 6, 10:10pm

Tue Dec 6, 9:10pm

Tue Dec 6, 8:10pm

Tue Dec 6, 7:10pm

Tue Dec 6, 6:10pm

Tue Dec 6, 5:10pm

Tue Dec 6, 4:10pm

Tue Dec 6, 3:10pm

Tue Dec 6, 2:10pm

Tue Dec 6, 1:10pm

Tue Dec 6, 12:10pm

Tue Dec 6, 11:10am

Tue Dec 6, 10:10am

Tue Dec 6, 9:10am

Tue Dec 6, 8:10am

Tue Dec 6, 7:10am

Tue Dec 6, 6:10am

Tue Dec 6, 5:10am

Tue Dec 6, 4:10am

Tue Dec 6, 3:10am

Tue Dec 6, 2:10am

Tue Dec 6, 1:10am

Tue Dec 6, 12:10am

Mon Dec 5, 11:10pm

Mon Dec 5, 10:10pm

Mon Dec 5, 9:10pm

Mon Dec 5, 8:10pm

Mon Dec 5, 7:10pm

Mon Dec 5, 6:10pm

Mon Dec 5, 5:10pm

Mon Dec 5, 4:10pm

Mon Dec 5, 3:10pm

Mon Dec 5, 2:10pm

Mon Dec 5, 1:10pm

Mon Dec 5, 12:10pm

Mon Dec 5, 11:10am

Mon Dec 5, 10:10am

Mon Dec 5, 9:10am

Mon Dec 5, 8:10am

Mon Dec 5, 7:10am

Mon Dec 5, 6:10am

Mon Dec 5, 5:10am

Mon Dec 5, 4:10am

Mon Dec 5, 3:10am

Mon Dec 5, 2:10am

Mon Dec 5, 1:10am

Mon Dec 5, 12:10am

Sun Dec 4, 11:10pm

Sun Dec 4, 10:10pm

Sun Dec 4, 9:10pm

Sun Dec 4, 8:10pm

Sun Dec 4, 7:10pm

Sun Dec 4, 6:10pm

Sun Dec 4, 5:10pm

Sun Dec 4, 4:10pm

Sun Dec 4, 3:10pm

Sun Dec 4, 2:10pm

Sun Dec 4, 1:10pm

Sun Dec 4, 12:10pm

Sun Dec 4, 11:10am

Sun Dec 4, 10:10am

Sun Dec 4, 9:10am

Sun Dec 4, 8:10am

Sun Dec 4, 7:10am

Sun Dec 4, 6:10am

Sun Dec 4, 5:10am

Sun Dec 4, 4:10am

Sun Dec 4, 3:10am

Sun Dec 4, 2:10am

Sun Dec 4, 1:10am

Sun Dec 4, 12:10am

Sat Dec 3, 11:10pm

Sat Dec 3, 10:10pm

Sat Dec 3, 9:10pm

Sat Dec 3, 8:10pm

Sat Dec 3, 7:10pm

Sat Dec 3, 6:10pm

Sat Dec 3, 5:10pm

Sat Dec 3, 4:10pm

Sat Dec 3, 3:10pm

Sat Dec 3, 2:10pm

Sat Dec 3, 1:10pm

Sat Dec 3, 12:10pm

Sat Dec 3, 11:10am

Sat Dec 3, 10:10am

Sat Dec 3, 9:10am

Sat Dec 3, 8:10am

Sat Dec 3, 7:10am

Sat Dec 3, 6:10am

Sat Dec 3, 5:10am

Sat Dec 3, 4:10am

Sat Dec 3, 3:10am

Sat Dec 3, 2:10am

Sat Dec 3, 1:10am

Sat Dec 3, 12:10am

Fri Dec 2, 11:10pm

Fri Dec 2, 10:10pm

Fri Dec 2, 9:10pm

Fri Dec 2, 8:10pm

Fri Dec 2, 7:10pm

Fri Dec 2, 6:10pm

Fri Dec 2, 5:10pm

Fri Dec 2, 4:10pm

Fri Dec 2, 3:10pm

Fri Dec 2, 2:10pm

Fri Dec 2, 1:10pm

Fri Dec 2, 12:10pm

Fri Dec 2, 11:10am

Fri Dec 2, 10:10am

Fri Dec 2, 9:10am

Fri Dec 2, 7:10am

Fri Dec 2, 6:10am

Fri Dec 2, 5:10am

Fri Dec 2, 4:10am

Fri Dec 2, 3:10am

Fri Dec 2, 2:10am

Fri Dec 2, 1:10am

Fri Dec 2, 12:10am

Thu Dec 1, 11:10pm

Thu Dec 1, 10:10pm

Thu Dec 1, 9:10pm

Thu Dec 1, 8:10pm

Thu Dec 1, 7:10pm

Thu Dec 1, 6:10pm

Thu Dec 1, 5:10pm

Thu Dec 1, 4:10pm

Thu Dec 1, 3:10pm

Meta data:

ID: 42a6f51a-f6c2-480c-8bfd-cd51b1ffadda
Link: https://api.weather.gov/products/42a6f51a-f6c2-480c-8bfd-cd51b1ffadda